This demonstration page uses our WeatherBlox Daily Observations layout. Learn more.

Left ArrowRight Arrow

34.16533, -84.80231

Hourly Observations for March 29, 2020

Temp ( °F °C ) Dew Point ( °F °C ) Humidity (%) Winds ( mph kmh ) Pressure ( in mb ) Visibility ( mi km ) Precip ( " mm )
12:53 am 00:53 Clear 73 22.8 62 16.7 69 69 SSW 6 9 29.93 1014 10 16 0.00 0.00
1:53 am 01:53 Clear 74 23.3 62 16.7 67 67 S 7 11 29.91 1013 10 16 0.00 0.00
2:53 am 02:53 Clear 74 23.3 63 17.2 69 69 VRB 5 7 29.90 1013 10 16 0.00 0.00
3:53 am 03:53 Clear 73 22.8 63 17.2 71 71 SSW 7 11 29.91 1013 10 16 0.00 0.00
4:53 am 04:53 Partly Cloudy 71 21.7 63 17.2 76 76 VRB 3 6 29.93 1014 10 16 0.00 0.00
5:03 am 05:03 Mostly Cloudy 71 21.7 63 17.2 76 76 VRB 5 7 29.96 1014 10 16 0.00 0.00
5:53 am 05:53 Cloudy 72 22.2 64 17.8 76 76 Calm 29.95 1014 10 16 0.00 0.00
6:08 am 06:08 Cloudy 73 22.8 64 17.8 74 74 VRB 3 6 29.97 1015 10 16 0.00 0.00
6:53 am 06:53 Cloudy 72 22.2 64 17.8 76 76 S 6 9 29.95 1014 10 16 0.00 0.00
7:53 am 07:53 Mostly Cloudy 70 21.1 66 18.9 87 87 VRB 3 6 29.98 1015 7 11 0.00 0.00
8:53 am 08:53 Mostly Cloudy 71 21.7 63 17.2 76 76 Calm 30.01 1016 10 16 0.00 0.00
9:23 am 09:23 Cloudy 70 21.1 57 13.9 64 64 VRB 3 6 30.04 1017 10 16 0.00 0.00
9:53 am 09:53 Cloudy 70 21.1 58 14.4 66 66 VRB 5 7 30.04 1017 10 16 0.00 0.00
10:53 am 10:53 Cloudy 72 22.2 58 14.4 61 61 Calm 30.07 1018 10 16 0.00 0.00
11:53 am 11:53 Mostly Sunny 73 22.8 54 12.2 51 51 VRB 6 9 30.07 1018 10 16 0.00 0.00
12:53 pm 12:53 Sunny 74 23.3 53 11.7 48 48 undefined N/A 30.07 1018 10 16 0.00 0.00
1:53 pm 13:53 Sunny 75 23.9 47 8.3 37 37 VRB 6 9 30.07 1018 10 16 0.00 0.00
2:53 pm 14:53 Sunny 76 24.4 50 10 40 40 Calm 30.06 1018 10 16 0.00 0.00
3:53 pm 15:53 Sunny 77 25 46 7.8 33 33 VRB 3 6 30.05 1018 10 16 0.00 0.00
4:53 pm 16:53 Sunny 77 25 44 6.7 31 31 VRB 5 7 30.05 1018 10 16 0.00 0.00
5:53 pm 17:53 Sunny 76 24.4 46 7.8 35 35 Calm 30.04 1017 10 16 0.00 0.00
6:53 pm 18:53 Sunny 73 22.8 46 7.8 38 38 Calm 30.06 1018 10 16 0.00 0.00
7:53 pm 19:53 Sunny 69 20.6 48 8.9 47 47 Calm 30.08 1019 10 16 0.00 0.00
8:53 pm 20:53 Clear 67 19.4 49 9.4 53 53 Calm 30.08 1019 10 16 0.00 0.00
9:53 pm 21:53 Clear 65 18.3 49 9.4 56 56 Calm 30.10 1019 10 16 0.00 0.00
10:53 pm 22:53 Clear 63 17.2 49 9.4 60 60 Calm 30.12 1020 10 16 0.00 0.00
11:53 pm 23:53 Clear 62 16.7 49 9.4 62 62 Calm 30.11 1020 10 16 0.00 0.00

Powered by AerisWeather